Orbital Elements at Epoch 2459200.5 (2020-Dec-17.0) TDB
Reference: JPL 33 (heliocentric ecliptic J2000)
Element | Value | Uncertainty (1-sigma) | Units |
e | .1835149260285752 | 2.8945e-08 | |
a | 2.616625525381991 | 8.1954e-09 | au |
q | 2.136435685647033 | 7.6934e-08 | au |
i | 5.273837922123917 | 3.6864e-06 | deg |
node | 191.8547441868417 | 3.3848e-05 | deg |
peri | 254.1321096843735 | 3.5497e-05 | deg |
M | 58.10971309835351 | 9.6215e-06 | deg |
tp | 2458950.950319707975 (2020-Apr-11.45031971) | 4.1066e-05 | TDB |
period | 1546.004619796933 4.23 | 7.2633e-06 1.989e-08 | d yr |
n | .2328582951112306 | 1.094e-09 | deg/d |
Q | 3.096815365116949 | 9.6994e-09 | au |
|
| | Orbit Determination Parameters
Additional Information
|